This demonstration page uses our WeatherBlox Daily Observations layout. Learn more.

Left ArrowRight Arrow

39.12711, -84.51439

Hourly Observations for September 1, 2016

Temp ( °F °C ) Dew Point ( °F °C ) Humidity (%) Winds ( mph kmh ) Pressure ( in mb ) Visibility ( mi km ) Precip ( " mm )
12:53 am 00:53 Clear 70 21.1 70 21.1 100 100 N N/A 29.95 1014 8 13 N/A
1:53 am 01:53 Clear 70 21.1 70 21.1 100 100 N N/A 29.95 1014 8 13 N/A
2:53 am 02:53 Clear 70 21.1 70 21.1 100 100 NE 3 6 29.96 1015 7 11 N/A
3:48 am 03:48 Mostly Cloudy 70 21 70 21 100 100 NNE 6 9 29.94 1014 7 11 N/A
3:53 am 03:53 Partly Cloudy 70 21.1 69 20.6 97 97 NNE 7 11 29.96 1014 8 13 N/A
4:01 am 04:01 Mostly Cloudy 71 21.7 69 20.6 94 94 NNE 9 15 29.94 1014 8 13 N/A
4:53 am 04:53 Cloudy 71 21.7 68 20 90 90 NNE 13 20 29.97 1015 10 16 N/A
5:53 am 05:53 Cloudy 69 20.6 63 17.2 81 81 NE 10 17 29.99 1016 10 16 N/A
6:53 am 06:53 Mostly Cloudy 67 19.4 60 15.6 79 79 NNE 8 13 30.00 1016 10 16 N/A
7:53 am 07:53 Mostly Cloudy 68 20 61 16.1 78 78 NNE 9 15 30.02 1017 10 16 N/A
8:53 am 08:53 Mostly Cloudy 68 20 60 15.6 76 76 NNE 9 15 30.04 1017 10 16 N/A
9:53 am 09:53 Mostly Cloudy 71 21.7 60 15.6 68 68 NNE 10 17 30.05 1018 10 16 N/A
10:53 am 10:53 Partly Cloudy 73 22.8 60 15.6 64 64 N 10 17 30.06 1018 10 16 N/A
11:53 am 11:53 Mostly Sunny 75 23.9 59 15 58 58 ENE 9 15 30.06 1018 10 16 N/A
12:53 pm 12:53 Mostly Sunny 77 25 60 15.6 56 56 ENE 13 20 30.05 1018 10 16 N/A
1:53 pm 13:53 Mostly Cloudy 77 25 60 15.6 56 56 NE 10 17 30.04 1017 10 16 N/A
2:53 pm 14:53 Mostly Cloudy 78 25.6 58 14.4 50 50 ENE 12 19 30.04 1017 10 16 N/A
3:53 pm 15:53 Partly Cloudy 78 25.6 58 14.4 50 50 ENE 7 11 30.02 1017 10 16 N/A
4:53 pm 16:53 Mostly Cloudy 78 25.6 57 13.9 48 48 NE 12 19 30.02 1017 10 16 N/A
5:53 pm 17:53 Partly Cloudy 75 23.9 56 13.3 52 52 N 14 22 30.03 1017 10 16 N/A
6:53 pm 18:53 Cloudy 74 23.3 58 14.4 57 57 NNE 8 13 30.04 1017 10 16 N/A
7:53 pm 19:53 Sunny 75 24 70 21 83 83 ESE 5 7 29.91 1013 10 16 N/A
8:53 pm 20:53 Clear 67 19.4 59 15 76 76 E 3 6 30.08 1019 10 16 N/A
9:53 pm 21:53 Clear 63 17.2 59 15 87 87 N N/A 30.09 1019 10 16 N/A
10:53 pm 22:53 Clear 64 17.8 58 14.4 81 81 ENE 3 6 30.10 1019 10 16 N/A
11:53 pm 23:53 Clear 65 18.3 59 15 81 81 NE 7 11 30.10 1019 10 16 N/A

Powered by AerisWeather